Location: El Centro
(32.7920°N, 115.5620°W)
Time: 07:24:51
(UTC-07:00)

Hamsat - Visible Passes

Search period start: 30 October 2014 00:00
Search period end: 08 November 2014 23:00
Orbit: 592 x 629 km, 97.6° (Epoch: 29 October)

Date Brightness Start Highest point End Pass type
(mag) Time Alt. Az. Time Alt. Az. Time Alt. Az.
30 Oct ? 06:13:17 10° NNE 06:17:26 55° E 06:21:36 10° S visible
30 Oct ? 18:38:40 10° SSW 18:41:58 23° W 18:45:17 10° NW visible
31 Oct ? 06:27:27 10° NNE 06:31:42 85° ESE 06:35:57 10° S visible
31 Oct ? 18:53:53 10° SW 18:56:19 15° W 18:58:46 10° WNW visible
02 Nov ? 04:22:16 10° ENE 04:24:04 12° E 04:25:53 10° ESE visible
03 Nov ? 04:35:24 10° NE 04:38:25 19° E 04:41:25 10° SE visible
04 Nov ? 04:49:04 10° NE 04:52:43 28° E 04:56:23 10° SSE visible
04 Nov ? 17:13:13 10° S 17:17:12 44° W 17:21:12 10° NNW visible
05 Nov ? 05:02:57 10° NNE 05:06:59 41° E 05:11:03 10° S visible
05 Nov ? 17:27:49 10° SSW 17:31:28 29° W 17:35:07 10° NW visible
06 Nov ? 05:17:00 10° NNE 05:21:14 64° E 05:25:29 10° S visible
06 Nov ? 17:42:41 10° SW 17:45:44 20° W 17:48:48 10° NW visible
07 Nov ? 05:31:09 10° N 05:35:26 84° WNW 05:39:44 10° SSW visible
07 Nov ? 17:58:03 10° WSW 18:00:02 13° W 18:02:01 10° WNW visible
